Location: Couloutre
(47.4081°N, 3.2259°E)
Time: 17:58:43
(UTC+00:00)

ARGOS Delta rocket - Pass Details

Date: 27 February 2020
Orbit: 636 x 837 km, 96.5° (Epoch: 31 March)

Event Time Altitude Azimuth Distance (km) Brightness Sun altitude
Exits shadow 19:13:09 34° 129° (SE) 1,063 4.3 -18.5°
Maximum altitude 19:14:46 52° 73° (ENE) 804 3.7 -18.8°
Drops below altitude 10° 19:19:09 10° 358° (N) 2,087 6.4 -19.5°
Sets 19:21:28 0° 353° (N) 3,028 7.3 -19.9°
